Location: Munkebjergskolens Observatorium
(55.3864°N, 10.3987°E)
Time: 05:21:32
(UTC+02:00)

KKS-1 - Pass Details

Date: 10 April 2023
Orbit: 633 x 644 km, 98.2° (Epoch: 31 May)

Event Time Altitude Azimuth Distance (km) Brightness Sun altitude
Rises 01:46:04 0° 7° (N) 2,946 ? -26.6°
Reaches altitude 10° 01:48:47 10° 350° (N) 2,034 ? -26.6°
Maximum altitude 01:51:52 19° 306° (NW) 1,527 ? -26.5°
Enters shadow 01:53:00 17° 286° (WNW) 1,605 ? -26.5°
